Time,TemperatureF,DewpointF,PressureIn,WindDirection,WindDirectionDegrees,WindSpeedMPH,WindSpeedGustMPH,Humidity,HourlyPrecipIn,Conditions,Clouds,dailyrainin,SoftwareType,DateUTC
2013-03-20 00:04:00,27.7,17.5,30.11,North,0,0.0,0.0,65,0.00,,,0.00,WUHU216HW,2013-03-20 04:04:00,
2013-03-20 00:09:00,27.5,17.3,30.11,North,0,0.0,0.0,65,0.00,,,0.00,WUHU216HW,2013-03-20 04:09:00,
2013-03-20 00:14:00,27.7,17.5,30.11,North,0,0.0,0.0,65,0.00,,,0.00,WUHU216HW,2013-03-20 04:14:00,
2013-03-20 00:19:00,27.5,17.3,30.11,North,0,0.0,0.0,65,0.00,,,0.00,WUHU216HW,2013-03-20 04:19:00,
2013-03-20 00:24:00,27.7,16.7,30.10,North,0,0.0,0.0,63,0.00,,,0.00,WUHU216HW,2013-03-20 04:24:00,
2013-03-20 00:29:00,27.7,16.4,30.09,North,0,0.0,0.0,62,0.00,,,0.00,WUHU216HW,2013-03-20 04:29:00,
2013-03-20 00:34:00,27.7,16.0,30.09,North,0,0.0,0.0,61,0.00,,,0.00,WUHU216HW,2013-03-20 04:34:00,
2013-03-20 00:39:00,27.7,16.0,30.08,North,0,0.0,0.0,61,0.00,,,0.00,WUHU216HW,2013-03-20 04:39:00,
2013-03-20 00:44:00,27.5,15.8,30.08,North,0,0.0,0.0,61,0.00,,,0.00,WUHU216HW,2013-03-20 04:44:00,
2013-03-20 00:49:00,27.2,15.5,30.08,North,0,0.0,0.0,61,0.00,,,0.00,WUHU216HW,2013-03-20 04:49:00,
2013-03-20 00:54:00,27.2,15.5,30.08,North,0,0.0,0.0,61,0.00,,,0.00,WUHU216HW,2013-03-20 04:54:00,
2013-03-20 00:59:00,27.0,15.3,30.08,North,0,0.0,0.0,61,0.00,,,0.00,WUHU216HW,2013-03-20 04:59:00,
2013-03-20 01:04:00,27.0,15.3,30.08,North,0,0.0,0.0,61,0.00,,,0.00,WUHU216HW,2013-03-20 05:04:00,
2013-03-20 01:09:00,26.6,14.9,30.08,North,0,0.0,0.0,61,0.00,,,0.00,WUHU216HW,2013-03-20 05:09:00,
2013-03-20 01:14:00,26.6,15.3,30.08,North,0,0.0,0.0,62,0.00,,,0.00,WUHU216HW,2013-03-20 05:14:00,
2013-03-20 01:19:00,26.6,15.3,30.08,North,0,0.0,0.0,62,0.00,,,0.00,WUHU216HW,2013-03-20 05:19:00,
2013-03-20 01:24:00,26.6,15.3,30.08,North,0,0.0,0.0,62,0.00,,,0.00,WUHU216HW,2013-03-20 05:24:00,
2013-03-20 01:29:00,26.6,14.9,30.08,North,0,0.0,0.0,61,0.00,,,0.00,WUHU216HW,2013-03-20 05:29:00,
2013-03-20 01:34:00,26.5,14.8,30.08,North,0,0.0,0.0,61,0.00,,,0.00,WUHU216HW,2013-03-20 05:34:00,
2013-03-20 01:39:00,26.3,14.2,30.09,North,0,0.0,0.0,60,0.00,,,0.00,WUHU216HW,2013-03-20 05:39:00,
2013-03-20 01:44:00,26.1,14.5,30.08,North,0,0.0,0.0,61,0.00,,,0.00,WUHU216HW,2013-03-20 05:44:00,
2013-03-20 01:49:00,26.3,14.6,30.08,North,0,0.0,0.0,61,0.00,,,0.00,WUHU216HW,2013-03-20 05:49:00,
2013-03-20 01:54:00,26.3,14.2,30.08,North,0,0.0,0.0,60,0.00,,,0.00,WUHU216HW,2013-03-20 05:54:00,
2013-03-20 01:59:00,26.1,13.7,30.08,North,0,0.0,0.0,59,0.00,,,0.00,WUHU216HW,2013-03-20 05:59:00,
2013-03-20 02:04:00,25.9,14.0,30.08,North,0,0.0,0.0,60,0.00,,,0.00,WUHU216HW,2013-03-20 06:04:00,
2013-03-20 02:09:00,25.9,14.0,30.08,North,0,0.0,0.0,60,0.00,,,0.00,WUHU216HW,2013-03-20 06:09:00,
2013-03-20 02:14:00,25.7,14.1,30.08,North,0,0.0,0.0,61,0.00,,,0.00,WUHU216HW,2013-03-20 06:14:00,
2013-03-20 02:20:00,25.9,14.3,30.09,North,0,0.0,0.0,61,0.00,,,0.00,WUHU216HW,2013-03-20 06:20:00,
2013-03-20 02:25:00,25.9,14.3,30.08,North,0,0.0,0.0,61,0.00,,,0.00,WUHU216HW,2013-03-20 06:25:00,
2013-03-20 02:30:00,25.9,14.3,30.08,North,0,0.0,0.0,61,0.00,,,0.00,WUHU216HW,2013-03-20 06:30:00,
2013-03-20 02:35:00,25.7,14.5,30.08,North,0,0.0,0.0,62,0.00,,,0.00,WUHU216HW,2013-03-20 06:35:00,
2013-03-20 02:40:00,25.6,14.3,30.09,North,0,0.0,0.0,62,0.00,,,0.00,WUHU216HW,2013-03-20 06:40:00,
2013-03-20 02:45:00,25.6,14.7,30.09,North,0,0.0,0.0,63,0.00,,,0.00,WUHU216HW,2013-03-20 06:45:00,
2013-03-20 02:50:00,25.7,14.9,30.09,North,0,0.0,0.0,63,0.00,,,0.00,WUHU216HW,2013-03-20 06:50:00,
2013-03-20 02:55:00,25.7,14.9,30.09,North,0,0.0,0.0,63,0.00,,,0.00,WUHU216HW,2013-03-20 06:55:00,
2013-03-20 03:00:00,25.6,15.0,30.08,North,0,0.0,0.0,64,0.00,,,0.00,WUHU216HW,2013-03-20 07:00:00,
2013-03-20 03:05:00,25.6,15.0,30.08,North,0,0.0,0.0,64,0.00,,,0.00,WUHU216HW,2013-03-20 07:05:00,
2013-03-20 03:10:00,25.6,14.7,30.08,North,0,0.0,0.0,63,0.00,,,0.00,WUHU216HW,2013-03-20 07:10:00,
2013-03-20 03:15:00,25.4,14.9,30.08,North,0,0.0,0.0,64,0.00,,,0.00,WUHU216HW,2013-03-20 07:15:00,
2013-03-20 03:20:00,25.4,14.9,30.08,North,0,0.0,0.0,64,0.00,,,0.00,WUHU216HW,2013-03-20 07:20:00,
2013-03-20 03:25:00,25.4,15.2,30.08,North,0,0.0,0.0,65,0.00,,,0.00,WUHU216HW,2013-03-20 07:25:00,
2013-03-20 03:30:00,25.6,15.4,30.08,North,0,0.0,0.0,65,0.00,,,0.00,WUHU216HW,2013-03-20 07:30:00,
2013-03-20 03:35:00,25.4,15.2,30.08,North,0,0.0,0.0,65,0.00,,,0.00,WUHU216HW,2013-03-20 07:35:00,
2013-03-20 03:40:00,25.2,15.4,30.08,North,0,0.0,0.0,66,0.00,,,0.00,WUHU216HW,2013-03-20 07:40:00,
2013-03-20 03:45:00,25.0,15.2,30.08,North,0,0.0,0.0,66,0.00,,,0.00,WUHU216HW,2013-03-20 07:45:00,
2013-03-20 03:50:00,25.0,15.2,30.08,North,0,0.0,0.0,66,0.00,,,0.00,WUHU216HW,2013-03-20 07:50:00,
2013-03-20 03:55:00,24.8,15.0,30.08,North,0,0.0,0.0,66,0.00,,,0.00,WUHU216HW,2013-03-20 07:55:00,
2013-03-20 04:00:00,24.8,15.0,30.08,North,0,0.0,0.0,66,0.00,,,0.00,WUHU216HW,2013-03-20 08:00:00,
2013-03-20 04:05:00,24.8,15.0,30.07,North,0,0.0,0.0,66,0.00,,,0.00,WUHU216HW,2013-03-20 08:05:00,
2013-03-20 04:10:00,24.8,15.0,30.08,North,0,0.0,0.0,66,0.00,,,0.00,WUHU216HW,2013-03-20 08:10:00,
2013-03-20 04:15:00,24.8,15.4,30.07,North,0,0.0,0.0,67,0.00,,,0.00,WUHU216HW,2013-03-20 08:15:00,
2013-03-20 04:20:00,24.7,15.2,30.07,North,0,0.0,0.0,67,0.00,,,0.00,WUHU216HW,2013-03-20 08:20:00,
2013-03-20 04:25:00,24.7,15.2,30.07,North,0,0.0,0.0,67,0.00,,,0.00,WUHU216HW,2013-03-20 08:25:00,
2013-03-20 04:53:00,24.7,15.2,30.07,North,0,0.0,0.0,67,0.00,,,0.00,WUHU216HW,2013-03-20 08:53:00,
2013-03-20 04:58:00,24.5,15.8,30.07,North,0,0.0,0.0,69,0.00,,,0.00,WUHU216HW,2013-03-20 08:58:00,
2013-03-20 05:03:00,24.3,15.6,30.07,North,0,0.0,0.0,69,0.00,,,0.00,WUHU216HW,2013-03-20 09:03:00,
2013-03-20 05:08:00,24.3,15.6,30.07,North,0,0.0,0.0,69,0.00,,,0.00,WUHU216HW,2013-03-20 09:08:00,
2013-03-20 05:13:00,24.3,15.6,30.07,North,0,0.0,0.0,69,0.00,,,0.00,WUHU216HW,2013-03-20 09:13:00,
2013-03-20 05:18:00,24.3,15.6,30.07,North,0,0.0,0.0,69,0.00,,,0.00,WUHU216HW,2013-03-20 09:18:00,
2013-03-20 05:23:00,24.1,15.0,30.07,North,0,0.0,0.0,68,0.00,,,0.00,WUHU216HW,2013-03-20 09:23:00,
2013-03-20 05:28:00,24.1,15.4,30.07,North,0,0.0,0.0,69,0.00,,,0.00,WUHU216HW,2013-03-20 09:28:00,
2013-03-20 05:33:00,24.1,15.4,30.06,North,0,0.0,0.0,69,0.00,,,0.00,WUHU216HW,2013-03-20 09:33:00,
2013-03-20 05:38:00,24.1,15.4,30.06,North,0,0.0,0.0,69,0.00,,,0.00,WUHU216HW,2013-03-20 09:38:00,
2013-03-20 05:43:00,24.1,15.4,30.06,North,0,0.0,0.0,69,0.00,,,0.00,WUHU216HW,2013-03-20 09:43:00,
2013-03-20 05:48:00,24.1,15.4,30.06,North,0,0.0,0.0,69,0.00,,,0.00,WUHU216HW,2013-03-20 09:48:00,
2013-03-20 05:53:00,24.1,15.4,30.06,North,0,0.0,0.0,69,0.00,,,0.00,WUHU216HW,2013-03-20 09:53:00,
2013-03-20 05:58:00,24.1,15.4,30.07,North,0,0.0,0.0,69,0.00,,,0.00,WUHU216HW,2013-03-20 09:58:00,
2013-03-20 06:03:00,24.1,15.8,30.08,North,0,0.0,0.0,70,0.00,,,0.00,WUHU216HW,2013-03-20 10:03:00,
2013-03-20 06:08:00,24.1,15.4,30.08,North,0,0.0,0.0,69,0.00,,,0.00,WUHU216HW,2013-03-20 10:08:00,
2013-03-20 06:13:00,23.8,15.4,30.08,North,0,0.0,0.0,70,0.00,,,0.00,WUHU216HW,2013-03-20 10:13:00,
2013-03-20 06:18:00,23.8,15.4,30.08,North,0,0.0,0.0,70,0.00,,,0.00,WUHU216HW,2013-03-20 10:18:00,
2013-03-20 06:23:00,23.8,15.4,30.08,North,0,0.0,0.0,70,0.00,,,0.00,WUHU216HW,2013-03-20 10:23:00,
2013-03-20 06:28:00,23.8,15.8,30.08,North,0,0.0,0.0,71,0.00,,,0.00,WUHU216HW,2013-03-20 10:28:00,
2013-03-20 06:33:00,23.8,15.8,30.08,North,0,0.0,0.0,71,0.00,,,0.00,WUHU216HW,2013-03-20 10:33:00,
2013-03-20 06:38:00,23.8,15.4,30.08,North,0,0.0,0.0,70,0.00,,,0.00,WUHU216HW,2013-03-20 10:38:00,
2013-03-20 06:43:00,23.8,15.4,30.08,North,0,0.0,0.0,70,0.00,,,0.00,WUHU216HW,2013-03-20 10:43:00,
2013-03-20 06:48:00,23.6,15.2,30.08,North,0,0.0,0.0,70,0.00,,,0.00,WUHU216HW,2013-03-20 10:48:00,
2013-03-20 06:53:00,23.6,15.2,30.08,North,0,0.0,0.0,70,0.00,,,0.00,WUHU216HW,2013-03-20 10:53:00,
2013-03-20 06:58:00,23.4,15.1,30.08,North,0,0.0,0.0,70,0.00,,,0.00,WUHU216HW,2013-03-20 10:58:00,
2013-03-20 07:03:00,23.4,15.1,30.08,North,0,0.0,0.0,70,0.00,,,0.00,WUHU216HW,2013-03-20 11:03:00,
2013-03-20 07:08:00,23.4,15.4,30.08,North,0,0.0,0.0,71,0.00,,,0.00,WUHU216HW,2013-03-20 11:08:00,
2013-03-20 07:13:00,23.4,15.1,30.08,North,0,0.0,0.0,70,0.00,,,0.00,WUHU216HW,2013-03-20 11:13:00,
2013-03-20 07:18:00,23.4,15.1,30.08,North,0,0.0,0.0,70,0.00,,,0.00,WUHU216HW,2013-03-20 11:18:00,
2013-03-20 07:23:00,23.4,15.1,30.08,North,0,0.0,0.0,70,0.00,,,0.00,WUHU216HW,2013-03-20 11:23:00,
2013-03-20 07:28:00,23.2,15.2,30.09,North,0,0.0,0.0,71,0.00,,,0.00,WUHU216HW,2013-03-20 11:28:00,
2013-03-20 07:33:00,23.0,15.0,30.09,North,0,0.0,0.0,71,0.00,,,0.00,WUHU216HW,2013-03-20 11:33:00,
2013-03-20 07:38:00,23.2,15.0,30.09,North,0,0.0,0.0,70,0.00,,,0.00,WUHU216HW,2013-03-20 11:38:00,
2013-03-20 07:43:00,23.0,14.8,30.09,North,0,0.0,0.0,70,0.00,,,0.00,WUHU216HW,2013-03-20 11:43:00,
2013-03-20 07:48:00,23.0,14.8,30.09,North,0,0.0,0.0,70,0.00,,,0.00,WUHU216HW,2013-03-20 11:48:00,
2013-03-20 07:53:00,23.0,14.8,30.09,North,0,0.0,0.0,70,0.00,,,0.00,WUHU216HW,2013-03-20 11:53:00,
2013-03-20 07:58:00,23.0,14.8,30.09,North,0,0.0,0.0,70,0.00,,,0.00,WUHU216HW,2013-03-20 11:58:00,
2013-03-20 08:03:00,22.9,14.6,30.09,North,0,0.0,0.0,70,0.00,,,0.00,WUHU216HW,2013-03-20 12:03:00,
2013-03-20 08:08:00,22.9,14.6,30.10,North,0,0.0,0.0,70,0.00,,,0.00,WUHU216HW,2013-03-20 12:08:00,
2013-03-20 08:13:00,22.9,14.2,30.10,North,0,0.0,0.0,69,0.00,,,0.00,WUHU216HW,2013-03-20 12:13:00,
2013-03-20 08:18:00,22.7,14.4,30.10,North,0,0.0,0.0,70,0.00,,,0.00,WUHU216HW,2013-03-20 12:18:00,
2013-03-20 08:23:00,22.9,14.6,30.10,North,0,0.0,0.0,70,0.00,,,0.00,WUHU216HW,2013-03-20 12:23:00,
2013-03-20 08:28:00,22.9,14.6,30.10,North,0,0.0,0.0,70,0.00,,,0.00,WUHU216HW,2013-03-20 12:28:00,
2013-03-20 08:33:00,23.0,15.4,30.10,North,0,0.0,0.0,72,0.00,,,0.00,WUHU216HW,2013-03-20 12:33:00,
2013-03-20 08:38:00,23.0,15.0,30.10,North,0,0.0,0.0,71,0.00,,,0.00,WUHU216HW,2013-03-20 12:38:00,
2013-03-20 08:43:00,22.9,14.9,30.10,North,0,0.0,0.0,71,0.00,,,0.00,WUHU216HW,2013-03-20 12:43:00,
2013-03-20 08:48:00,22.9,15.2,30.09,North,0,0.0,0.0,72,0.00,,,0.00,WUHU216HW,2013-03-20 12:48:00,
2013-03-20 08:53:00,22.7,14.7,30.09,North,0,0.0,0.0,71,0.00,,,0.00,WUHU216HW,2013-03-20 12:53:00,
2013-03-20 08:58:00,22.7,14.4,30.08,North,0,0.0,0.0,70,0.00,,,0.00,WUHU216HW,2013-03-20 12:58:00,
2013-03-20 09:03:00,22.9,14.6,30.08,North,0,0.0,0.0,70,0.00,,,0.00,WUHU216HW,2013-03-20 13:03:00,
2013-03-20 09:08:00,22.9,14.2,30.08,North,0,0.0,0.0,69,0.00,,,0.00,WUHU216HW,2013-03-20 13:08:00,
2013-03-20 09:13:00,22.9,14.2,30.08,North,0,0.0,0.0,69,0.00,,,0.00,WUHU216HW,2013-03-20 13:13:00,
2013-03-20 09:18:00,22.9,14.6,30.08,North,0,0.0,0.0,70,0.00,,,0.00,WUHU216HW,2013-03-20 13:18:00,
2013-03-20 09:23:00,23.0,14.4,30.09,North,0,0.0,0.0,69,0.00,,,0.00,WUHU216HW,2013-03-20 13:23:00,
2013-03-20 09:28:00,23.0,14.4,30.09,North,0,0.0,0.0,69,0.00,,,0.00,WUHU216HW,2013-03-20 13:28:00,
2013-03-20 09:33:00,23.0,14.8,30.09,North,0,0.0,0.0,70,0.00,,,0.00,WUHU216HW,2013-03-20 13:33:00,
2013-03-20 09:38:00,23.0,14.4,30.09,North,0,0.0,0.0,69,0.00,,,0.00,WUHU216HW,2013-03-20 13:38:00,
2013-03-20 09:43:00,23.4,14.8,30.09,North,0,0.0,0.0,69,0.00,,,0.00,WUHU216HW,2013-03-20 13:43:00,
2013-03-20 09:48:00,23.4,15.1,30.09,North,0,0.0,0.0,70,0.00,,,0.00,WUHU216HW,2013-03-20 13:48:00,
2013-03-20 09:53:00,23.2,14.6,30.09,North,0,0.0,0.0,69,0.00,,,0.00,WUHU216HW,2013-03-20 13:53:00,
2013-03-20 09:58:00,23.2,15.0,30.09,North,0,0.0,0.0,70,0.00,,,0.00,WUHU216HW,2013-03-20 13:58:00,
2013-03-20 10:03:00,23.4,15.1,30.09,North,0,0.0,0.0,70,0.00,,,0.00,WUHU216HW,2013-03-20 14:03:00,
2013-03-20 10:08:00,23.2,15.6,30.09,North,0,0.0,0.0,72,0.00,,,0.00,WUHU216HW,2013-03-20 14:08:00,
2013-03-20 10:13:00,22.9,15.5,30.09,North,0,0.0,0.0,73,0.00,,,0.00,WUHU216HW,2013-03-20 14:13:00,
2013-03-20 10:18:00,22.7,16.2,30.09,North,0,0.0,0.0,76,0.00,,,0.00,WUHU216HW,2013-03-20 14:18:00,
2013-03-20 10:23:00,22.7,15.7,30.09,North,0,0.0,0.0,74,0.00,,,0.00,WUHU216HW,2013-03-20 14:23:00,
2013-03-20 10:28:00,23.0,16.3,30.09,North,0,0.0,0.0,75,0.00,,,0.00,WUHU216HW,2013-03-20 14:28:00,
2013-03-20 10:33:00,22.9,16.8,30.09,North,0,0.0,0.0,77,0.00,,,0.00,WUHU216HW,2013-03-20 14:33:00,
2013-03-20 10:38:00,23.0,16.9,30.09,North,0,0.0,0.0,77,0.00,,,0.00,WUHU216HW,2013-03-20 14:38:00,
2013-03-20 10:43:00,22.9,17.0,30.09,North,0,0.0,0.0,78,0.00,,,0.00,WUHU216HW,2013-03-20 14:43:00,
2013-03-20 10:48:00,22.7,15.9,30.09,North,0,0.0,0.0,75,0.00,,,0.00,WUHU216HW,2013-03-20 14:48:00,
2013-03-20 10:53:00,22.7,15.9,30.09,North,0,0.0,0.0,75,0.00,,,0.00,WUHU216HW,2013-03-20 14:53:00,
2013-03-20 10:59:00,22.7,16.6,30.09,North,0,0.0,0.0,77,0.00,,,0.00,WUHU216HW,2013-03-20 14:59:00,
2013-03-20 11:04:00,22.5,16.4,30.09,North,0,0.0,0.0,77,0.00,,,0.00,WUHU216HW,2013-03-20 15:04:00,
2013-03-20 11:09:00,22.7,16.8,30.09,North,0,0.0,0.0,78,0.00,,,0.00,WUHU216HW,2013-03-20 15:09:00,
2013-03-20 11:14:00,22.5,16.7,30.09,North,0,0.0,0.0,78,0.00,,,0.00,WUHU216HW,2013-03-20 15:14:00,
2013-03-20 11:19:00,22.5,16.4,30.09,North,0,0.0,0.0,77,0.00,,,0.00,WUHU216HW,2013-03-20 15:19:00,
2013-03-20 11:24:00,22.3,16.2,30.09,North,0,0.0,0.0,77,0.00,,,0.00,WUHU216HW,2013-03-20 15:24:00,
2013-03-20 11:29:00,22.7,16.6,30.09,North,0,0.0,0.0,77,0.00,,,0.00,WUHU216HW,2013-03-20 15:29:00,
2013-03-20 11:34:00,22.1,16.0,30.09,North,0,0.0,0.0,77,0.00,,,0.00,WUHU216HW,2013-03-20 15:34:00,
2013-03-20 11:39:00,22.3,16.2,30.09,North,0,0.0,0.0,77,0.00,,,0.00,WUHU216HW,2013-03-20 15:39:00,
2013-03-20 11:44:00,22.3,16.8,30.09,North,0,0.0,0.0,79,0.00,,,0.00,WUHU216HW,2013-03-20 15:44:00,
2013-03-20 11:49:00,22.0,16.7,30.09,North,0,0.0,0.0,80,0.00,,,0.00,WUHU216HW,2013-03-20 15:49:00,
2013-03-20 11:54:00,22.0,16.5,30.10,North,0,0.0,0.0,79,0.00,,,0.00,WUHU216HW,2013-03-20 15:54:00,
2013-03-20 11:59:00,22.0,16.5,30.10,North,0,0.0,0.0,79,0.00,,,0.00,WUHU216HW,2013-03-20 15:59:00,
2013-03-20 12:04:00,22.0,16.5,30.10,North,0,0.0,0.0,79,0.00,,,0.00,WUHU216HW,2013-03-20 16:04:00,
2013-03-20 12:09:00,22.0,16.7,30.10,North,0,0.0,0.0,80,0.00,,,0.00,WUHU216HW,2013-03-20 16:09:00,
2013-03-20 12:14:00,22.3,17.1,30.10,North,0,0.0,0.0,80,0.00,,,0.00,WUHU216HW,2013-03-20 16:14:00,
2013-03-20 12:19:00,22.0,16.5,30.10,North,0,0.0,0.0,79,0.00,,,0.00,WUHU216HW,2013-03-20 16:19:00,
2013-03-20 12:24:00,22.0,16.1,30.10,North,0,0.0,0.0,78,0.00,,,0.00,WUHU216HW,2013-03-20 16:24:00,
2013-03-20 12:29:00,22.3,16.5,30.10,North,0,0.0,0.0,78,0.00,,,0.00,WUHU216HW,2013-03-20 16:29:00,
2013-03-20 12:34:00,22.0,16.5,30.10,North,0,0.0,0.0,79,0.00,,,0.00,WUHU216HW,2013-03-20 16:34:00,
2013-03-20 12:39:00,22.0,16.5,30.10,North,0,0.0,0.0,79,0.00,,,0.00,WUHU216HW,2013-03-20 16:39:00,
2013-03-20 12:44:00,22.3,16.8,30.10,North,0,0.0,0.0,79,0.00,,,0.00,WUHU216HW,2013-03-20 16:44:00,
2013-03-20 12:49:00,22.7,17.5,30.11,North,0,0.0,0.0,80,0.00,,,0.00,WUHU216HW,2013-03-20 16:49:00,
2013-03-20 12:54:00,22.7,16.8,30.11,North,0,0.0,0.0,78,0.00,,,0.00,WUHU216HW,2013-03-20 16:54:00,
2013-03-20 12:59:00,22.7,16.6,30.11,North,0,0.0,0.0,77,0.00,,,0.00,WUHU216HW,2013-03-20 16:59:00,
2013-03-20 13:04:00,22.1,16.3,30.11,North,0,0.0,0.0,78,0.00,,,0.00,WUHU216HW,2013-03-20 17:04:00,
2013-03-20 13:09:00,22.1,16.3,30.11,North,0,0.0,0.0,78,0.00,,,0.00,WUHU216HW,2013-03-20 17:09:00,
2013-03-20 13:14:00,23.0,16.9,30.11,North,0,0.0,0.0,77,0.00,,,0.00,WUHU216HW,2013-03-20 17:14:00,
2013-03-20 13:19:00,22.9,16.4,30.12,North,0,0.0,0.0,76,0.01,,,0.01,WUHU216HW,2013-03-20 17:19:00,
2013-03-20 13:24:00,22.3,16.2,30.12,North,0,0.0,0.0,77,0.01,,,0.01,WUHU216HW,2013-03-20 17:24:00,
2013-03-20 13:29:00,22.3,16.2,30.12,North,0,0.0,0.0,77,0.01,,,0.01,WUHU216HW,2013-03-20 17:29:00,
2013-03-20 13:34:00,22.1,16.0,30.12,North,0,0.0,0.0,77,0.01,,,0.01,WUHU216HW,2013-03-20 17:34:00,
2013-03-20 13:39:00,22.5,16.4,30.12,North,0,0.0,0.0,77,0.01,,,0.01,WUHU216HW,2013-03-20 17:39:00,
2013-03-20 13:44:00,22.7,15.9,30.12,North,0,0.0,0.0,75,0.01,,,0.01,WUHU216HW,2013-03-20 17:44:00,
2013-03-20 13:49:00,22.7,15.7,30.11,North,0,0.0,0.0,74,0.01,,,0.01,WUHU216HW,2013-03-20 17:49:00,
2013-03-20 13:54:00,23.0,15.7,30.11,North,0,0.0,0.0,73,0.01,,,0.01,WUHU216HW,2013-03-20 17:54:00,
2013-03-20 13:59:00,23.4,15.1,30.11,North,0,0.0,0.0,70,0.01,,,0.01,WUHU216HW,2013-03-20 17:59:00,
2013-03-20 14:04:00,24.1,16.4,30.11,North,0,0.0,0.0,72,0.01,,,0.01,WUHU216HW,2013-03-20 18:04:00,
2013-03-20 14:09:00,24.1,16.4,30.11,North,0,0.0,0.0,72,0.01,,,0.01,WUHU216HW,2013-03-20 18:09:00,
2013-03-20 14:14:00,23.4,15.4,30.11,North,0,0.0,0.0,71,0.00,,,0.01,WUHU216HW,2013-03-20 18:14:00,
2013-03-20 14:19:00,22.9,15.2,30.11,North,0,0.0,0.0,72,0.00,,,0.01,WUHU216HW,2013-03-20 18:19:00,
2013-03-20 14:24:00,22.3,16.2,30.11,North,0,0.0,0.0,77,0.00,,,0.01,WUHU216HW,2013-03-20 18:24:00,
2013-03-20 14:29:00,22.0,16.7,30.11,North,0,0.0,0.0,80,0.00,,,0.01,WUHU216HW,2013-03-20 18:29:00,
2013-03-20 14:34:00,21.2,16.8,30.11,North,0,0.0,0.0,83,0.00,,,0.01,WUHU216HW,2013-03-20 18:34:00,
2013-03-20 14:39:00,21.2,17.4,30.11,North,0,0.0,0.0,85,0.00,,,0.01,WUHU216HW,2013-03-20 18:39:00,
2013-03-20 14:44:00,21.2,17.1,30.11,North,0,0.0,0.0,84,0.00,,,0.01,WUHU216HW,2013-03-20 18:44:00,
2013-03-20 14:49:00,21.8,16.8,30.11,North,0,0.0,0.0,81,0.00,,,0.01,WUHU216HW,2013-03-20 18:49:00,
2013-03-20 14:54:00,21.8,15.7,30.11,North,0,0.0,0.0,77,0.00,,,0.01,WUHU216HW,2013-03-20 18:54:00,
2013-03-20 14:59:00,22.0,15.9,30.11,North,0,0.0,0.0,77,0.00,,,0.01,WUHU216HW,2013-03-20 18:59:00,
2013-03-20 15:04:00,22.0,15.9,30.11,North,0,0.0,0.0,77,0.00,,,0.01,WUHU216HW,2013-03-20 19:04:00,
2013-03-20 15:09:00,21.4,15.9,30.11,North,0,0.0,0.0,79,0.00,,,0.01,WUHU216HW,2013-03-20 19:09:00,
2013-03-20 15:14:00,21.4,16.2,30.11,North,0,0.0,0.0,80,0.00,,,0.01,WUHU216HW,2013-03-20 19:14:00,
2013-03-20 15:19:00,21.6,15.8,30.10,North,0,0.0,0.0,78,0.00,,,0.01,WUHU216HW,2013-03-20 19:19:00,
2013-03-20 15:24:00,22.0,16.1,30.10,North,0,0.0,0.0,78,0.00,,,0.01,WUHU216HW,2013-03-20 19:24:00,
2013-03-20 15:29:00,22.7,16.8,30.10,North,0,0.0,0.0,78,0.00,,,0.01,WUHU216HW,2013-03-20 19:29:00,
2013-03-20 15:34:00,23.0,16.9,30.10,North,0,0.0,0.0,77,0.00,,,0.01,WUHU216HW,2013-03-20 19:34:00,
2013-03-20 15:39:00,22.7,16.8,30.10,North,0,0.0,0.0,78,0.00,,,0.01,WUHU216HW,2013-03-20 19:39:00,
2013-03-20 15:44:00,23.2,17.4,30.10,North,0,0.0,0.0,78,0.00,,,0.01,WUHU216HW,2013-03-20 19:44:00,
2013-03-20 15:49:00,23.4,17.3,30.10,North,0,0.0,0.0,77,0.00,,,0.01,WUHU216HW,2013-03-20 19:49:00,
2013-03-20 15:54:00,23.2,16.7,30.10,North,0,0.0,0.0,76,0.00,,,0.01,WUHU216HW,2013-03-20 19:54:00,
2013-03-20 15:59:00,23.2,16.7,30.10,North,0,0.0,0.0,76,0.00,,,0.01,WUHU216HW,2013-03-20 19:59:00,
2013-03-20 16:04:00,22.9,16.8,30.10,North,0,0.0,0.0,77,0.00,,,0.01,WUHU216HW,2013-03-20 20:04:00,
2013-03-20 16:09:00,22.9,16.8,30.10,North,0,0.0,0.0,77,0.00,,,0.01,WUHU216HW,2013-03-20 20:09:00,
2013-03-20 16:14:00,22.5,16.4,30.10,North,0,0.0,0.0,77,0.00,,,0.01,WUHU216HW,2013-03-20 20:14:00,
2013-03-20 16:19:00,22.0,15.5,30.11,North,0,0.0,0.0,76,0.00,,,0.01,WUHU216HW,2013-03-20 20:19:00,
2013-03-20 16:24:00,21.6,15.8,30.10,North,0,0.0,0.0,78,0.00,,,0.01,WUHU216HW,2013-03-20 20:24:00,
2013-03-20 16:29:00,21.2,15.4,30.11,North,0,0.0,0.0,78,0.00,,,0.01,WUHU216HW,2013-03-20 20:29:00,
2013-03-20 16:34:00,21.2,16.0,30.11,North,0,0.0,0.0,80,0.00,,,0.01,WUHU216HW,2013-03-20 20:34:00,
2013-03-20 16:39:00,21.2,16.3,30.11,North,0,0.0,0.0,81,0.00,,,0.01,WUHU216HW,2013-03-20 20:39:00,
2013-03-20 16:44:00,21.2,15.4,30.11,North,0,0.0,0.0,78,0.00,,,0.01,WUHU216HW,2013-03-20 20:44:00,
2013-03-20 16:50:00,21.4,15.3,30.11,North,0,0.0,0.0,77,0.00,,,0.01,WUHU216HW,2013-03-20 20:50:00,
2013-03-20 16:55:00,21.4,15.3,30.11,North,0,0.0,0.0,77,0.00,,,0.01,WUHU216HW,2013-03-20 20:55:00,
2013-03-20 17:00:00,21.4,15.6,30.11,North,0,0.0,0.0,78,0.00,,,0.01,WUHU216HW,2013-03-20 21:00:00,
2013-03-20 17:05:00,21.2,15.4,30.11,North,0,0.0,0.0,78,0.00,,,0.01,WUHU216HW,2013-03-20 21:05:00,
2013-03-20 17:10:00,21.2,15.4,30.11,North,0,0.0,0.0,78,0.00,,,0.01,WUHU216HW,2013-03-20 21:10:00,
2013-03-20 17:15:00,20.9,15.0,30.11,North,0,0.0,0.0,78,0.00,,,0.01,WUHU216HW,2013-03-20 21:15:00,
2013-03-20 17:20:00,20.9,15.4,30.11,North,0,0.0,0.0,79,0.00,,,0.01,WUHU216HW,2013-03-20 21:20:00,
2013-03-20 17:25:00,20.5,15.8,30.11,North,0,0.0,0.0,82,0.00,,,0.01,WUHU216HW,2013-03-20 21:25:00,
2013-03-20 17:30:00,20.5,15.8,30.11,North,0,0.0,0.0,82,0.00,,,0.01,WUHU216HW,2013-03-20 21:30:00,
2013-03-20 17:35:00,20.5,15.8,30.11,North,0,0.0,0.0,82,0.00,,,0.01,WUHU216HW,2013-03-20 21:35:00,
2013-03-20 17:40:00,20.3,15.9,30.11,North,0,0.0,0.0,83,0.00,,,0.01,WUHU216HW,2013-03-20 21:40:00,
2013-03-20 17:45:00,20.3,15.9,30.11,North,0,0.0,0.0,83,0.00,,,0.01,WUHU216HW,2013-03-20 21:45:00,
2013-03-20 17:50:00,20.3,15.7,30.11,North,0,0.0,0.0,82,0.00,,,0.01,WUHU216HW,2013-03-20 21:50:00,
2013-03-20 17:55:00,20.5,15.8,30.11,North,0,0.0,0.0,82,0.00,,,0.01,WUHU216HW,2013-03-20 21:55:00,
2013-03-20 18:00:00,20.5,15.8,30.11,North,0,0.0,0.0,82,0.00,,,0.01,WUHU216HW,2013-03-20 22:00:00,
2013-03-20 18:05:00,20.2,15.5,30.11,North,0,0.0,0.0,82,0.00,,,0.01,WUHU216HW,2013-03-20 22:05:00,
2013-03-20 18:10:00,20.3,15.7,30.11,North,0,0.0,0.0,82,0.00,,,0.01,WUHU216HW,2013-03-20 22:10:00,
2013-03-20 18:15:00,20.3,15.7,30.11,North,0,0.0,0.0,82,0.00,,,0.01,WUHU216HW,2013-03-20 22:15:00,
2013-03-20 18:20:00,20.0,15.0,30.11,North,0,0.0,0.0,81,0.00,,,0.01,WUHU216HW,2013-03-20 22:20:00,
2013-03-20 18:25:00,19.8,15.1,30.12,North,0,0.0,0.0,82,0.00,,,0.01,WUHU216HW,2013-03-20 22:25:00,
2013-03-20 18:30:00,20.2,15.5,30.12,North,0,0.0,0.0,82,0.00,,,0.01,WUHU216HW,2013-03-20 22:30:00,
2013-03-20 18:35:00,20.2,15.5,30.12,North,0,0.0,0.0,82,0.00,,,0.01,WUHU216HW,2013-03-20 22:35:00,
2013-03-20 18:40:00,20.0,15.6,30.12,North,0,0.0,0.0,83,0.00,,,0.01,WUHU216HW,2013-03-20 22:40:00,
2013-03-20 18:45:00,19.8,15.4,30.12,North,0,0.0,0.0,83,0.00,,,0.01,WUHU216HW,2013-03-20 22:45:00,
2013-03-20 18:50:00,19.6,14.9,30.12,North,0,0.0,0.0,82,0.00,,,0.01,WUHU216HW,2013-03-20 22:50:00,
2013-03-20 18:55:00,19.4,15.0,30.12,North,0,0.0,0.0,83,0.00,,,0.01,WUHU216HW,2013-03-20 22:55:00,
2013-03-20 19:00:00,19.4,15.0,30.13,North,0,0.0,0.0,83,0.00,,,0.01,WUHU216HW,2013-03-20 23:00:00,
2013-03-20 19:05:00,19.4,15.0,30.13,North,0,0.0,0.0,83,0.00,,,0.01,WUHU216HW,2013-03-20 23:05:00,
2013-03-20 19:10:00,19.1,14.7,30.13,North,0,0.0,0.0,83,0.00,,,0.01,WUHU216HW,2013-03-20 23:10:00,
2013-03-20 19:15:00,19.1,14.7,30.12,North,0,0.0,0.0,83,0.00,,,0.01,WUHU216HW,2013-03-20 23:15:00,
2013-03-20 19:20:00,18.7,14.3,30.12,North,0,0.0,0.0,83,0.00,,,0.01,WUHU216HW,2013-03-20 23:20:00,
2013-03-20 19:25:00,18.7,14.3,30.12,North,0,0.0,0.0,83,0.00,,,0.01,WUHU216HW,2013-03-20 23:25:00,
2013-03-20 19:30:00,18.7,14.0,30.13,North,0,0.0,0.0,82,0.00,,,0.01,WUHU216HW,2013-03-20 23:30:00,
2013-03-20 19:35:00,18.7,14.0,30.12,North,0,0.0,0.0,82,0.00,,,0.01,WUHU216HW,2013-03-20 23:35:00,
2013-03-20 19:40:00,18.7,14.3,30.12,North,0,0.0,0.0,83,0.00,,,0.01,WUHU216HW,2013-03-20 23:40:00,
2013-03-20 19:45:00,18.9,14.2,30.12,North,0,0.0,0.0,82,0.00,,,0.01,WUHU216HW,2013-03-20 23:45:00,
2013-03-20 19:50:00,19.1,14.7,30.12,North,0,0.0,0.0,83,0.00,,,0.01,WUHU216HW,2013-03-20 23:50:00,
2013-03-20 19:55:00,18.9,14.8,30.13,North,0,0.0,0.0,84,0.00,,,0.01,WUHU216HW,2013-03-20 23:55:00,
2013-03-20 20:00:00,18.9,14.8,30.12,North,0,0.0,0.0,84,0.00,,,0.01,WUHU216HW,2013-03-21 00:00:00,
2013-03-20 20:05:00,18.5,14.1,30.13,North,0,0.0,0.0,83,0.00,,,0.01,WUHU216HW,2013-03-21 00:05:00,
2013-03-20 20:10:00,18.4,14.2,30.13,North,0,0.0,0.0,84,0.00,,,0.01,WUHU216HW,2013-03-21 00:10:00,
2013-03-20 20:15:00,18.2,14.0,30.13,North,0,0.0,0.0,84,0.00,,,0.01,WUHU216HW,2013-03-21 00:15:00,
2013-03-20 20:20:00,18.2,14.0,30.13,North,0,0.0,0.0,84,0.00,,,0.01,WUHU216HW,2013-03-21 00:20:00,
2013-03-20 20:25:00,18.2,14.3,30.12,North,0,0.0,0.0,85,0.00,,,0.01,WUHU216HW,2013-03-21 00:25:00,
2013-03-20 20:30:00,18.2,14.6,30.13,North,0,0.0,0.0,86,0.00,,,0.01,WUHU216HW,2013-03-21 00:30:00,
2013-03-20 20:35:00,18.0,14.7,30.13,North,0,0.0,0.0,87,0.00,,,0.01,WUHU216HW,2013-03-21 00:35:00,
2013-03-20 20:40:00,18.0,14.7,30.13,North,0,0.0,0.0,87,0.00,,,0.01,WUHU216HW,2013-03-21 00:40:00,
2013-03-20 21:05:00,18.0,14.9,30.13,North,0,0.0,0.0,88,0.00,,,0.01,WUHU216HW,2013-03-21 01:05:00,
2013-03-20 21:10:00,18.2,15.4,30.13,North,0,0.0,0.0,89,0.00,,,0.01,WUHU216HW,2013-03-21 01:10:00,
2013-03-20 21:15:00,18.2,15.1,30.13,North,0,0.0,0.0,88,0.00,,,0.01,WUHU216HW,2013-03-21 01:15:00,
2013-03-20 21:20:00,18.0,14.7,30.13,North,0,0.0,0.0,87,0.00,,,0.01,WUHU216HW,2013-03-21 01:20:00,
2013-03-20 21:25:00,17.6,14.3,30.13,North,0,0.0,0.0,87,0.00,,,0.01,WUHU216HW,2013-03-21 01:25:00,
2013-03-20 21:30:00,17.6,14.3,30.13,North,0,0.0,0.0,87,0.00,,,0.01,WUHU216HW,2013-03-21 01:30:00,
2013-03-20 21:35:00,17.6,14.3,30.13,North,0,0.0,0.0,87,0.00,,,0.01,WUHU216HW,2013-03-21 01:35:00,
2013-03-20 21:40:00,17.6,14.3,30.13,North,0,0.0,0.0,87,0.00,,,0.01,WUHU216HW,2013-03-21 01:40:00,
2013-03-20 21:45:00,17.5,14.1,30.13,North,0,0.0,0.0,87,0.00,,,0.01,WUHU216HW,2013-03-21 01:45:00,
2013-03-20 21:50:00,17.5,14.1,30.13,North,0,0.0,0.0,87,0.00,,,0.01,WUHU216HW,2013-03-21 01:50:00,
2013-03-20 21:55:00,17.3,14.0,30.13,North,0,0.0,0.0,87,0.00,,,0.01,WUHU216HW,2013-03-21 01:55:00,
2013-03-20 22:00:00,17.1,13.8,30.13,North,0,0.0,0.0,87,0.00,,,0.01,WUHU216HW,2013-03-21 02:00:00,
2013-03-20 22:05:00,16.9,13.6,30.12,North,0,0.0,0.0,87,0.00,,,0.01,WUHU216HW,2013-03-21 02:05:00,
2013-03-20 22:10:00,16.9,13.6,30.12,North,0,0.0,0.0,87,0.00,,,0.01,WUHU216HW,2013-03-21 02:10:00,
2013-03-20 22:15:00,16.9,13.6,30.12,North,0,0.0,0.0,87,0.00,,,0.01,WUHU216HW,2013-03-21 02:15:00,
2013-03-20 22:20:00,16.9,13.6,30.12,North,0,0.0,0.0,87,0.00,,,0.01,WUHU216HW,2013-03-21 02:20:00,
2013-03-20 22:25:00,16.9,13.3,30.12,North,0,0.0,0.0,86,0.00,,,0.01,WUHU216HW,2013-03-21 02:25:00,
2013-03-20 22:30:00,17.3,14.0,30.12,North,0,0.0,0.0,87,0.00,,,0.01,WUHU216HW,2013-03-21 02:30:00,
2013-03-20 22:35:00,17.5,13.9,30.12,North,0,0.0,0.0,86,0.00,,,0.01,WUHU216HW,2013-03-21 02:35:00,
2013-03-20 22:40:00,17.1,13.5,30.12,North,0,0.0,0.0,86,0.00,,,0.01,WUHU216HW,2013-03-21 02:40:00,
2013-03-20 22:45:00,16.6,13.0,30.12,North,0,0.0,0.0,86,0.00,,,0.01,WUHU216HW,2013-03-21 02:45:00,
2013-03-20 22:50:00,16.2,12.7,30.12,North,0,0.0,0.0,86,0.00,,,0.01,WUHU216HW,2013-03-21 02:50:00,
2013-03-20 22:55:00,16.0,12.5,30.12,North,0,0.0,0.0,86,0.00,,,0.01,WUHU216HW,2013-03-21 02:55:00,
2013-03-20 23:00:00,15.7,11.9,30.12,North,0,0.0,0.0,85,0.00,,,0.01,WUHU216HW,2013-03-21 03:00:00,
2013-03-20 23:05:00,15.5,11.7,30.12,North,0,0.0,0.0,85,0.00,,,0.01,WUHU216HW,2013-03-21 03:05:00,
2013-03-20 23:10:00,15.5,11.7,30.12,North,0,0.0,0.0,85,0.00,,,0.01,WUHU216HW,2013-03-21 03:10:00,
2013-03-20 23:15:00,15.7,11.9,30.12,North,0,0.0,0.0,85,0.00,,,0.01,WUHU216HW,2013-03-21 03:15:00,
2013-03-20 23:20:00,15.5,11.7,30.12,North,0,0.0,0.0,85,0.00,,,0.01,WUHU216HW,2013-03-21 03:20:00,
2013-03-20 23:25:00,15.3,11.5,30.11,North,0,0.0,0.0,85,0.00,,,0.01,WUHU216HW,2013-03-21 03:25:00,
2013-03-20 23:30:00,15.1,11.6,30.12,North,0,0.0,0.0,86,0.00,,,0.01,WUHU216HW,2013-03-21 03:30:00,
2013-03-20 23:35:00,15.1,11.6,30.12,North,0,0.0,0.0,86,0.00,,,0.01,WUHU216HW,2013-03-21 03:35:00,
2013-03-20 23:40:00,15.1,11.6,30.11,North,0,0.0,0.0,86,0.00,,,0.01,WUHU216HW,2013-03-21 03:40:00,
2013-03-20 23:45:00,14.8,11.4,30.11,North,0,0.0,0.0,86,0.00,,,0.01,WUHU216HW,2013-03-21 03:45:00,
2013-03-20 23:50:00,14.4,11.0,30.11,North,0,0.0,0.0,86,0.00,,,0.01,WUHU216HW,2013-03-21 03:50:00,
2013-03-20 23:55:00,14.2,10.8,30.11,North,0,0.0,0.0,86,0.00,,,0.01,WUHU216HW,2013-03-21 03:55:00,